Regional Weather Roundup
Issued by NWS

Home | Current Version | Previous Version | Text Only | Print | Product List | Glossary Off
Versions: 1 2 3 4 5 6 7 8 9 10 11 12 13 14 15 16 17 18 19 20 21 22 23 24 25 26

000
ASUS45 KBOU 262107
RWRCO

WEATHER ROUNDUP FOR COLORADO
NATIONAL WEATHER SERVICE DENVER/BOULDER CO
300 PM MDT WED JUL 26 2017

NOTE: "FAIR" INDICATES FEW OR NO CLOUDS BELOW 12000 FEET WITH NO
SIGNIFICANT WEATHER AND/OR OBSTRUCTIONS TO VISIBILITY.

COZ001>005-013-030-031-262200-
...NORTHWEST COLORADO...

CITY           SKY/WX    TMP DP  RH WIND       PRES   REMARKS
CRAIG          TSTM      71  57  61 NW14      30.29R
HAYDEN         PTSUNNY   73  54  49 NE3       30.30F
MEEKER         LGT RAIN  71  64  78 W7        30.29S
RABBIT EARS PA MOCLDY    59  54  82 W6        30.60S
STEAMBOAT SPGS FAIR      74  56  52 NW8       30.32F
WALDEN         CLOUDY    57  52  82 NW8       30.44R
$$

COZ006>008-011-262200-
...WEST CENTRAL VALLEYS...

CITY           SKY/WX    TMP DP  RH WIND       PRES   REMARKS
GRAND JUNCTION FAIR      86  60  41 VRB5      30.17F
MONTROSE       FAIR      84  56  38 VRB5      30.24F
EAGLE          MOSUNNY   77  55  47 MISG      30.32F
RIFLE          FAIR      80  61  52 CALM      30.23F
DELTA          FAIR      90  55  30 S7        30.19F
NUCLA          FAIR      84  52  32 NE3       30.29F
$$

COZ017>023-064>068-262200-
...SOUTHWEST COLORADO...

CITY           SKY/WX    TMP DP  RH WIND       PRES   REMARKS
DURANGO        FAIR      82  49  31 W9G18     30.31F
CORTEZ         FAIR      83  54  36 CALM      30.26F
PAGOSA SPRINGS FAIR      80  47  30 S12G23    30.39F
TELLURIDE      FAIR      69  52  54 W8        30.51F
WOLF CREEK PAS LGT RAIN  52  52 100 S13G21    30.77R
$$

COZ009-010-012-014-032>034-037-058>063-262200-
...CENTRAL COLORADO...

CITY           SKY/WX    TMP DP  RH WIND       PRES   REMARKS
ASPEN          PTSUNNY   73  55  53 NW13      30.38F
BUENA VISTA    FAIR      81  42  25 W12G21    30.36F
COPPER MTN     RAIN      55  48  76 NW12G20   30.72S
BERTHOUD PASS  CLOUDY    48  34  57 NW14      30.74F
COTTONWOOD PAS FAIR      77  39  25 SW12G21   30.53F
GUNNISON       NOT AVBL
KREMMLING      FAIR      81  54  39 W9G16     30.37F
LEADVILLE      FAIR      70  46  42 NW8       30.49F
MONARCH PASS   FAIR      59  45  58 W21G28    30.82F
SALIDA         FAIR      86  43  22 W10       30.39F
SUNLIGHT       PTSUNNY   57  52  82 SW5       30.66S
WILKERSON PASS PTSUNNY   68  43  40 CALM      30.68S
$$

COZ069>075-262200-
...SAN LUIS VALLEY/SANGRE DE CRISTO MOUNTAINS...

CITY           SKY/WX    TMP DP  RH WIND       PRES   REMARKS
ALAMOSA        FAIR      81  50  33 VRB5      30.33F
DEL NORTE      FAIR      77  54  45 SE7       30.38F THUNDER
LA VETA PASS   NOT AVBL
SAGUACHE         N/A    N/A N/A N/A MISG        N/A
$$

COZ035-036-038>040-262200-
...NORTHERN COLORADO FRONT RANGE...

CITY           SKY/WX    TMP DP  RH WIND       PRES   REMARKS
DENVER INTL AP PTSUNNY   82  57  42 N14       30.23F
DMNS CITY PARK   N/A     79  57  46 NE9G20    30.23F
AURORA         PTSUNNY   80  59  48 N14G21    30.25S
FRONT RANGE AP PTSUNNY   82  57  42 N10G17    30.24F
ERIE MUNI ARPT FAIR      79  58  48 N7        30.22F
BOULDER MUN AP PTSUNNY   79  57  47 N8        30.23F
CENTENNIAL     PTSUNNY   80  59  48 N12       30.25F
BROOMFIELD     CLOUDY    79  59  50 N6        30.26F
FORT COLLINS   PTSUNNY   78  60  53 N8        30.23F
LONGMONT       RAIN      82  61  48 N7        30.24F
$$

COZ041-046-047-076>085-087-088-262200-
...PIKES PEAK/PALMER DIVIDE AND SOUTHERN FOOTHILLS...

CITY           SKY/WX    TMP DP  RH WIND       PRES   REMARKS
COLO. SPRINGS  PTSUNNY   83  58  42 SE7       30.27F THUNDER
A. F. ACADEMY  TSTM      75  63  64 W17       30.29R
SCHRIEVER AFB  FAIR      81  54  39 N6        30.27F
CHEYENNE MTN   PTSUNNY   73  56  55 N3        30.28F
ELLICOTT       FAIR     N/A N/A N/A NE8       30.25F
FALCON         TSTM      66  62  86 S13       30.34R
FORT CARSON    FAIR      81  61  49 N9        30.22F
LIMON          FAIR      82  60  47 N12G17    30.21F
MONUMENT HILL  FAIR      70  55  60 N8        30.35F
CANON CITY     SUNNY     90  61  37 E10G17    30.17F
WALSENBURG     FAIR      84  55  37 NE6       30.23F
TRINIDAD       PTSUNNY   87  51  28 E9        30.18F
$$

COZ042>045-048>051-090-091-262200-
...NORTHEAST COLORADO...

CITY           SKY/WX    TMP DP  RH WIND       PRES   REMARKS
GREELEY ARPT   FAIR      82  60  47 N9G17     30.20F
AKRON          PTSUNNY   81  58  45 N14G23    30.18F
BURLINGTON     FAIR      86  64  47 N17       30.14S
WRAY           NOT AVBL
YUMA           FAIR      82  54  36 N9G22     30.15S
STERLING       PTSUNNY   81  61  50 NE10G18   30.14S
HOLYOKE        FAIR      88  61  40 N14       30.13F
FORT MORGAN    PTSUNNY   86  53  32 N10G16    30.18F
$$

COZ086-089-092>099-262200-
...SOUTHEAST COLORADO...

CITY           SKY/WX    TMP DP  RH WIND       PRES   REMARKS
PUEBLO         FAIR      92  56  29 VRB6      30.11F
LA JUNTA       FAIR      94  58  29 E9        30.09F
LAMAR          FAIR      94  60  32 NE12      30.04F
SPRINGFIELD      N/A     91  58  32 VRB6      30.10F
$$




USA.gov is the U.S. government's official web portal to all federal, state and local government web resources and services.